Total_Precipitation_Accumulation
2.62 2.89 2.90 2.79 2.75 2.84 2.78 2.63 2.41 2.41 2.39 2.21 2.05 2.10 2.15 2.19 2.30 2.48 2.63 2.62 2.64 2.88 3.34 3.63 3.67 3.50 3.39 3.33 3.24 3.14 2.98 2.86 2.82 2.72 2.61 2.47 2.35 2.28 2.25 2.25 2.23 2.06 1.98
3.21 3.37 3.34 3.18 2.99 3.07 3.02 2.91 2.77 2.84 2.83 2.80 2.60 2.49 2.39 2.44 2.45 2.53 2.76 2.97 2.86 2.80 3.22 3.77 4.06 4.04 3.88 3.73 3.46 3.22 3.13 3.07 3.01 2.91 2.81 2.61 2.38 2.33 2.34 2.34 2.34 2.18 2.06
3.79 3.86 3.84 3.54 3.28 3.31 3.50 3.49 3.40 3.33 3.06 2.98 2.87 2.81 2.69 2.55 2.56 2.66 2.86 3.28 3.21 3.24 3.40 3.48 3.64 3.75 3.86 4.01 3.97 3.73 3.50 3.31 3.20 3.12 3.03 2.92 2.70 2.49 2.42 2.42 2.49 2.43 2.25
3.85 4.00 3.98 3.82 3.66 3.60 3.86 4.00 3.95 3.88 3.68 3.55 3.34 3.09 2.87 2.81 2.80 2.95 3.07 3.31 3.55 3.50 3.66 3.55 3.35 3.38 3.64 3.87 4.01 4.04 3.89 3.58 3.37 3.39 3.37 3.23 2.98 2.81 2.64 2.54 2.56 2.54 2.43
4.19 4.29 4.17 4.15 4.18 4.26 4.25 4.01 4.12 3.96 3.97 3.84 3.37 3.18 2.89 2.83 2.97 2.97 3.09 3.20 3.38 3.35 3.38 3.32 3.28 3.24 3.42 3.77 3.87 4.06 4.08 3.96 3.76 3.62 3.68 3.59 3.34 3.10 2.86 2.70 2.55 2.50 2.46
4.59 4.87 4.82 4.73 4.73 4.68 4.48 4.39 4.39 4.15 3.97 3.83 3.38 3.13 2.92 2.79 2.76 2.87 2.86 2.92 2.99 2.91 2.83 2.91 3.19 3.09 3.21 3.39 3.46 3.66 3.93 4.08 3.93 3.73 3.65 3.69 3.53 3.16 2.82 2.69 2.61 2.52 2.48
5.38 5.45 5.25 5.08 4.95 4.92 4.83 4.77 4.59 4.36 4.09 3.97 3.90 3.51 2.97 2.70 2.66 2.59 2.59 2.66 2.75 2.77 2.73 2.75 2.76 2.75 2.77 2.96 3.00 3.16 3.44 3.80 3.90 3.86 3.82 3.72 3.61 3.35 3.00 2.75 2.70 2.66 2.58
5.54 5.44 5.50 5.43 5.25 5.11 4.96 4.77 4.67 4.47 4.10 4.01 4.00 3.88 3.39 3.01 2.60 2.25 2.25 2.31 2.44 2.63 2.51 2.40 2.48 2.54 2.53 2.64 2.65 2.92 3.14 3.37 3.65 3.79 3.70 3.54 3.39 3.34 3.29 3.14 2.98 2.87 2.79
5.70 5.50 5.38 5.19 5.04 4.93 4.82 4.65 4.48 4.33 4.11 3.95 3.89 4.00 3.67 3.22 2.77 2.44 2.12 2.08 2.13 2.27 2.24 2.23 2.21 2.28 2.38 2.51 2.49 2.65 2.81 2.84 3.18 3.48 3.58 3.44 3.28 3.17 3.13 3.14 3.12 3.07 3.01
5.31 5.05 4.94 4.84 4.68 4.33 4.14 3.99 3.94 3.80 3.67 3.49 3.52 3.46 3.30 3.10 3.09 2.98 2.70 2.47 2.36 2.28 2.26 2.17 2.11 2.20 2.23 2.37 2.52 2.53 2.50 2.49 2.73 3.02 3.26 3.34 3.23 3.23 3.21 3.18 3.17 3.16 3.17
4.73 4.44 4.32 4.18 3.94 3.54 3.20 3.08 3.21 3.26 3.26 3.16 3.16 3.20 3.18 3.01 2.94 2.94 2.89 2.79 2.67 2.43 2.31 2.33 2.31 2.27 2.21 2.20 2.25 2.35 2.32 2.18 2.28 2.45 2.76 3.04 3.14 3.25 3.29 3.19 3.20 3.19 3.22
4.21 3.82 3.46 3.20 2.96 2.79 2.59 2.56 2.62 2.68 2.90 3.00 3.11 3.12 3.10 3.00 2.90 2.93 2.83 2.78 2.77 2.59 2.35 2.23 2.24 2.20 2.15 2.12 2.04 2.21 2.01 1.90 1.89 1.97 2.16 2.43 2.69 2.84 2.83 2.94 3.12 3.22 3.31
3.44 3.12 2.79 2.65 2.51 2.40 2.34 2.35 2.36 2.32 2.42 2.61 2.72 2.80 2.86 2.86 2.84 2.89 3.01 2.96 2.78 2.60 2.48 2.30 2.13 2.05 2.04 2.07 2.04 2.08 1.88 1.77 1.69 1.66 1.67 1.79 1.95 2.16 2.31 2.50 2.68 2.86 3.00
2.63 2.42 2.19 2.02 1.99 2.06 2.00 2.08 2.10 2.12 2.13 2.20 2.28 2.49 2.59 2.60 2.63 2.60 2.65 2.77 2.83 2.66 2.41 2.24 2.12 1.97 1.87 1.79 1.80 1.79 1.56 1.58 1.45 1.41 1.42 1.47 1.52 1.61 1.75 1.85 1.96 2.05 2.13
1.97 1.84 1.76 1.71 1.66 1.72 1.83 1.86 1.81 1.84 1.95 1.96 1.99 2.12 2.17 2.18 2.22 2.28 2.38 2.46 2.64 2.66 2.43 2.14 2.00 1.86 1.67 1.52 1.58 1.39 1.34 1.37 1.23 1.16 1.13 1.16 1.20 1.27 1.36 1.42 1.51 1.55 1.57
1.70 1.65 1.57 1.49 1.43 1.44 1.48 1.57 1.60 1.61 1.66 1.75 1.81 1.84 1.87 1.85 1.89 1.96 2.11 2.25 2.31 2.38 2.31 1.97 1.72 1.58 1.49 1.33 1.38 1.23 1.25 1.29 1.11 1.07 1.03 1.04 1.08 1.16 1.19 1.24 1.28 1.35 1.37
1.41 1.38 1.29 1.21 1.18 1.20 1.26 1.36 1.39 1.43 1.48 1.56 1.65 1.65 1.66 1.66 1.72 1.72 1.74 1.82 1.98 2.08 2.08 1.83 1.64 1.56 1.49 1.38 1.35 1.32 1.27 1.20 1.08 1.08 1.02 1.02 1.05 1.06 1.06 1.09 1.09 1.14 1.24
1.24 1.20 1.11 1.05 1.02 1.04 1.09 1.14 1.17 1.20 1.32 1.36 1.39 1.41 1.41 1.45 1.49 1.49 1.53 1.55 1.64 1.78 1.85 1.84 1.73 1.66 1.56 1.45 1.43 1.43 1.19 1.01 0.99 1.01 0.93 0.88 0.89 0.90 0.93 0.94 0.93 0.92 0.95
1.20 1.12 1.00 0.96 0.94 0.93 0.94 0.99 1.04 1.04 1.08 1.15 1.19 1.26 1.28 1.33 1.29 1.23 1.28 1.36 1.40 1.48 1.68 1.70 1.61 1.54 1.45 1.34 1.44 1.36 1.24 1.30 0.99 0.92 0.83 0.78 0.78 0.75 0.76 0.78 0.80 0.79 0.76
1.12 1.07 1.01 0.94 0.90 0.86 0.89 0.91 0.89 0.92 0.96 1.02 1.04 1.10 1.10 1.14 1.15 1.19 1.21 1.33 1.39 1.51 1.59 1.60 1.55 1.51 1.42 1.34 1.45 1.45 1.42 1.38 1.14 0.84 0.81 0.71 0.74 0.73 0.72 0.72 0.72 0.70 0.68
1.11 1.06 1.01 0.94 0.82 0.75 0.73 0.76 0.77 0.80 0.89 0.93 0.95 0.94 0.93 0.98 1.07 1.08 1.05 1.15 1.30 1.47 1.47 1.47 1.47 1.49 1.43 1.45 1.44 1.39 1.38 1.40 1.28 1.06 1.06 0.89 0.86 0.90 0.89 0.83 0.76 0.73 0.66
1.03 0.99 0.92 0.84 0.75 0.63 0.67 0.67 0.66 0.72 0.83 0.89 0.87 0.87 0.85 0.83 0.88 0.94 0.95 1.01 1.15 1.27 1.36 1.42 1.43 1.46 1.46 1.54 1.57 1.54 1.51 1.53 1.51 1.24 1.25 1.17 1.04 1.12 1.04 0.94 0.84 0.71 0.64
1.03 0.95 0.87 0.83 0.80 0.72 0.58 0.50 0.54 0.65 0.81 0.82 0.81 0.87 0.79 0.73 0.83 0.87 0.90 0.90 0.93 0.97 1.09 1.29 1.43 1.48 1.59 1.73 1.82 1.75 1.67 1.63 1.62 1.41 1.47 1.42 1.28 1.32 1.06 0.91 0.93 0.78 0.68
0.98 0.97 0.94 0.96 0.95 0.78 0.57 0.43 0.48 0.64 0.75 0.70 0.70 0.79 0.87 0.88 0.83 0.84 0.85 0.89 0.92 0.92 0.96 1.03 1.28 1.37 1.38 1.56 1.76 1.82 1.80 1.71 1.68 1.66 1.74 1.71 1.36 1.28 1.12 1.28 1.24 1.03 0.84
0.93 0.93 0.94 1.00 1.01 0.87 0.66 0.51 0.53 0.65 0.73 0.71 0.70 0.70 0.72 0.79 0.78 0.83 0.90 1.04 1.08 1.08 0.89 0.94 1.07 1.14 1.18 1.32 1.45 1.64 1.85 1.95 1.89 1.78 1.75 1.76 1.53 1.38 1.38 1.58 1.49 1.37 1.11
0.84 0.79 0.85 0.95 0.94 0.85 0.66 0.51 0.52 0.56 0.66 0.78 0.86 0.86 0.83 0.78 0.77 0.83 0.96 1.12 1.18 1.16 1.15 1.29 1.41 1.41 1.39 1.44 1.39 1.54 1.84 1.96 1.92 1.88 1.73 1.74 1.73 1.65 1.72 1.73 1.69 1.56 1.46